Terminal Aerodrome Forecast
Issued by NWS Dallas/Fort Worth, TX

Home | Current Version | Previous Version | Text Only | Print | Product List | Glossary On
Versions: 1 2 3 4 5 6 7 8 9 10 11 12 13 14 15 16 17 18 19 20 21 22 23 24 25 26 27 28 29
000
FTUS44 KFWD 181800 AAA
TAFDFW
TAF AMD
KDFW 181815Z 1818/1924 07008KT P6SM BKN025 BKN150
     FM181900 10007KT P6SM VCTS BKN040CB OVC100
      TEMPO 1819/1821 5SM TSRA
     FM190200 15006KT P6SM SCT140
     FM191200 12003KT P6SM BKN015
     FM191700 13004KT P6SM FEW250=

USA.gov is the U.S. government's official web portal to all federal, state and local government web resources and services.